FW2347 Weather Reports


Display with metric or nautical units.
time (UTC)temp
F
wind
direction
speed
MPH
gust
MPH
rain 1hr
in
rain 24hr
in
rain mn
in
humidity
%
barometer
mb
20260906083012 81 0.0 0.0 0.00 0.00 0.00 54 1019.0
20260906081603 80 360 0.0 0.0 0.00 0.00 0.00 56 1019.1
20260906080046 77 360 0.0 0.0 0.00 0.00 0.00 61 1019.0
20260906074509 74 360 0.0 0.0 0.00 0.00 0.00 65 1019.1
20260906073052 72 360 0.0 0.0 0.00 0.00 0.00 68 1019.2
20260906071526 70 360 0.0 0.0 0.00 0.00 0.00 70 1019.3
20260906070014 69 5 0.0 0.0 0.00 0.00 0.00 72 1019.2
20260906064601 67 5 0.0 0.0 0.00 0.00 0.00 73 1019.2
20260906063055 65 5 0.0 0.0 0.00 0.00 0.00 73 1019.2
20260906061546 63 5 0.0 0.0 0.00 0.00 0.00 72 1019.2
20260906060031 62 360 0.0 0.0 0.00 0.00 0.00 72 1019.1
20260906054519 61 360 0.0 0.0 0.00 0.00 0.00 70 1019.2
20260906053005 60 5 0.0 0.0 0.00 0.00 0.00 71 1019.0
20260906051602 60 5 0.0 0.0 0.00 0.00 0.00 72 1019.0
20260906050104 60 360 0.0 0.0 0.00 0.00 0.00 73 1018.9
20260906044541 61 5 0.0 0.0 0.00 0.00 0.00 73 1018.8
20260906043024 62 0.0 0.0 0.00 0.00 0.00 74 1018.9
20260906041504 62 360 0.0 0.0 0.00 0.00 0.00 73 1019.0
20260906040137 62 5 0.0 0.0 0.00 0.00 0.00 74 1019.0
20260906034556 63 360 0.0 0.0 0.00 0.00 0.00 74 1019.1
20260906033039 63 360 0.0 0.0 0.00 0.00 0.00 74 1019.2
20260906031541 63 360 0.0 0.0 0.00 0.00 0.00 74 1019.2
20260906030034 63 5 0.0 0.0 0.00 0.00 0.00 74 1019.2
20260906024510 64 360 0.0 0.0 0.00 0.00 0.00 73 1019.2
20260906023104 64 5 0.0 0.0 0.00 0.00 0.00 73 1019.2
20260906021606 64 360 0.0 0.0 0.00 0.00 0.00 73 1019.2
20260906014552 64 5 0.0 0.0 0.00 0.00 0.00 73 1019.3
20260906013022 65 5 0.0 0.0 0.00 0.00 0.00 73 1019.3
20260906011510 65 5 0.0 0.0 0.00 0.00 0.00 72 1019.3
20260906010106 66 0.0 0.0 0.00 0.00 0.00 72 1019.4
20260906004539 67 360 0.0 0.0 0.00 0.00 0.00 71 1019.5
20260906003025 66 5 0.0 0.0 0.00 0.00 0.00 72 1019.5
20260906001505 65 5 0.0 0.0 0.00 0.00 0.00 72 1019.6
20260906000101 66 360 0.0 0.0 0.00 0.00 0.00 71 1019.6
20260905234546 67 0.0 0.0 0.00 0.00 0.00 70 1019.7
20260905233014 68 0.0 0.0 0.00 0.00 0.00 69 1019.8
20260905231505 68 5 0.0 0.0 0.00 0.00 0.00 69 1019.8
20260905230051 69 360 0.0 0.0 0.00 0.00 0.00 67 1019.9
20260905224526 69 0.0 0.0 0.00 0.00 0.00 67 1019.8
20260905223031 69 5 0.0 0.0 0.00 0.00 0.00 67 1019.8
20260905221512 69 5 0.0 0.0 0.00 0.00 0.00 66 1019.8
20260905220105 70 5 0.0 0.0 0.00 0.00 0.00 65 1019.8
20260905214542 70 360 0.0 0.0 0.00 0.00 0.00 65 1019.8
20260905213037 70 0.0 0.0 0.00 0.00 0.00 63 1019.8
20260905211542 71 5 0.0 0.0 0.00 0.00 0.00 63 1019.8
20260905210015 71 5 0.0 0.0 0.00 0.00 0.00 62 1019.9
20260905204504 72 360 0.0 0.0 0.00 0.00 0.00 60 1019.9
20260905203102 72 5 0.0 0.0 0.00 0.00 0.00 60 1020.0
20260905201603 73 360 0.0 0.0 0.00 0.00 0.00 58 1019.9
20260905200048 74 5 0.0 0.0 0.00 0.00 0.00 56 1019.6
20260905194526 75 5 0.0 0.0 0.00 0.00 0.00 55 1019.5
20260905193011 76 0.0 0.0 0.00 0.00 0.00 53 1019.4
20260905191502 78 0.0 0.0 0.00 0.00 0.00 52 1019.3
20260905190054 79 360 0.0 0.0 0.00 0.00 0.00 49 1019.2
20260905184538 82 5 0.0 0.0 0.00 0.00 0.00 48 1019.2
20260905183023 84 0.0 0.0 0.00 0.00 0.00 46 1019.0
20260905181523 86 5 0.0 0.0 0.00 0.00 0.00 45 1018.8
20260905180020 87 5 0.0 0.0 0.00 0.00 0.00 43 1018.6
20260905174522 88 0.0 0.0 0.00 0.00 0.00 41 1018.5
20260905173007 89 5 0.0 0.0 0.00 0.00 0.00 40 1018.3
20260905171605 90 0.0 0.0 0.00 0.00 0.00 40 1018.2
20260905170056 91 360 0.0 0.0 0.00 0.00 0.00 38 1017.9
20260905164540 92 360 0.0 0.0 0.00 0.00 0.00 37 1017.8
20260905163033 92 5 0.0 0.0 0.00 0.00 0.00 36 1017.7
20260905161512 93 5 0.0 0.0 0.00 0.00 0.00 35 1017.5
20260905160019 93 360 0.0 0.0 0.00 0.00 0.00 34 1017.4
20260905154504 94 360 0.0 0.0 0.00 0.00 0.00 34 1017.5
20260905153102 94 0.0 0.0 0.00 0.00 0.00 34 1017.4
20260905151551 95 5 0.0 0.0 0.00 0.00 0.00 33 1017.4
20260905150032 95 360 0.0 0.0 0.00 0.00 0.00 33 1017.4
20260905144538 96 5 0.0 0.0 0.00 0.00 0.00 33 1017.4
20260905143007 96 0.0 0.0 0.00 0.00 0.00 32 1017.5
20260905141600 96 360 0.0 0.0 0.00 0.00 0.00 31 1017.4
20260905140039 97 0.0 0.0 0.00 0.00 0.00 30 1017.5
20260905134529 96 360 0.0 0.0 0.00 0.00 0.00 30 1017.6
20260905133026 97 0.0 0.0 0.00 0.00 0.00 30 1017.7
20260905131525 97 360 0.0 0.0 0.00 0.00 0.00 30 1017.8
20260905130015 97 5 0.0 0.0 0.00 0.00 0.00 30 1017.9
20260905124604 98 5 0.0 0.0 0.00 0.00 0.00 30 1018.0
20260905123048 97 5 0.0 0.0 0.00 0.00 0.00 31 1018.2
20260905121543 97 360 0.0 0.0 0.00 0.00 0.00 31 1018.3
20260905120018 96 5 0.0 0.0 0.00 0.00 0.00 32 1018.5
20260905114503 96 360 0.0 0.0 0.00 0.00 0.00 32 1018.7
20260905113001 95 5 0.0 0.0 0.00 0.00 0.00 33 1018.8
20260905111613 95 5 0.0 0.0 0.00 0.00 0.00 34 1018.9
20260905110044 94 360 0.0 0.0 0.00 0.00 0.00 35 1019.0
20260905104525 93 360 0.0 0.0 0.00 0.00 0.00 39 1019.1
20260905103005 92 360 0.0 0.0 0.00 0.00 0.00 40 1019.2
20260905101544 92 5 0.0 0.0 0.00 0.00 0.00 42 1019.4
20260905100019 91 5 0.0 0.0 0.00 0.00 0.00 42 1019.5
20260905094504 90 5 0.0 0.0 0.00 0.00 0.00 43 1019.6
20260905093053 89 5 0.0 0.0 0.00 0.00 0.00 46 1019.7
20260905091545 87 360 0.0 0.0 0.00 0.00 0.00 49 1019.7
20260905090030 87 5 0.0 0.0 0.00 0.00 0.00 51 1019.6
20260905084535 84 5 0.0 0.0 0.00 0.00 0.00 56 1019.6